Regional Weather Roundup
Issued by NWS Midland/Odessa, TX

Skip options and go directly to product.
Home | Oldest Version | Previous Version | Current Version | All | Text Only | Save Text | Print | Product List | Glossary Off

Skip product version selection by date and time.   

799
ASUS44 KMAF 031010
RWRMAF
MIDLAND AREA WEATHER ROUNDUP
NATIONAL WEATHER SERVICE MIDLAND TX
500 AM CDT SUN MAY 03 2015

...IN SOUTHWEST TEXAS AND SOUTHEAST NEW MEXICO...

CITY           SKY/WX    TMP DP  RH WIND       PRES   REMARKS
ALPINE         MOCLDY    63  44  49 SW9       30.05S
ANDREWS        FAIR      59  45  59 S8        29.93S
ARTESIA        CLEAR     59  48  67 S8        29.94R
BIG SPRING     CLEAR     64  47  55 SE17      29.95F
CARLSBAD       CLEAR     58  46  64 S7        29.90R
DRYDEN           N/A     63  52  67 E6        29.94S
FORT STOCKTON  PTCLDY    62  46  55 S15G23    29.92F
GUAD PASS      PTCLDY    62  34  35 W13G21    30.02F
HOBBS          PTCLDY    57  45  62 S10       29.96F
MARFA          CLOUDY    61  45  55 S6        30.04F
MIDLAND AIRPK  CLEAR     62  47  58 S12       29.93F
MIDLAND INTL   CLEAR     62  47  57 S13       29.93S
ODESSA         CLEAR     62  45  53 S14       29.93S
PECOS          PTCLDY    58  45  60 E6        29.88F
PRESIDIO       FAIR      72  48  43 N8        29.90F
SEMINOLE       PTCLDY    54  42  63 CALM      29.97R
SNYDER         CLEAR     56  47  71 S6        29.95S
WINK           CLEAR     60  43  53 SE12      29.90F
$$
...OTHER STATIONS IN TEXAS...

CITY           SKY/WX    TMP DP  RH WIND       PRES   REMARKS
ABILENE        CLEAR     61  51  70 S13       29.94F
AMARILLO       MOCLDY    62  43  49 S16       29.92S
AUSTIN         CLEAR     51  51 100 CALM      29.99F
BROWNSVILLE    CLOUDY    72  68  87 E6        29.95S
CORPUS CHRISTI PTCLDY    65  62  90 SE6       29.97F
DALLAS FTW     CLEAR     62  55  77 S8        29.97S
DEL RIO        PTCLDY    64  60  87 E9        29.94S
EL PASO        MOCLDY    74  36  25 N9        29.94F
HOUSTON INT    PTCLDY    57  56  96 CALM      30.02S
LUBBOCK        PTCLDY    62  44  51 SW12      29.96F
SAN ANGELO     CLEAR     62  52  69 S10       29.95S
SAN ANTONIO    MOCLDY    63  57  81 CALM      30.00S
WACO           CLEAR     61  55  81 S8        29.99S
WICHITA FALLS  NOT AVBL
$$
...OTHER LOCATIONS IN NEW MEXICO...

CITY           SKY/WX    TMP DP  RH WIND       PRES   REMARKS
ALAMAGORDO     PTCLDY    66  32  28 E6        29.99F
ALBUQUERQUE    PTCLDY    56  35  45 S3        30.05S
CANNON AFB     PTCLDY    53  42  65 E5        29.96F
CLOVIS         PTCLDY    54  41  62 S5        29.97F
HOLLOMAN AFB   MOCLDY    67  37  33 W5        29.97F
ROSWELL        CLEAR     55  43  63 S3        29.92F
RUIDOSO        PTCLDY    54  28  37 W6        30.13R
SANTA FE       PTCLDY    45  34  65 N7        30.08S
TRUTH OR CONSE CLOUDY    67  35  30 S3        30.01S
TUCUMCARI      MOCLDY    60  41  49 W9        29.91F
$$

USA.gov is the U.S. government's official web portal to all federal, state and local government web resources and services.